Temp
4 4 4 4 4 4 5 5 6 6 7 7 7 7 7 7 7 8 9 6 5 5 4 4 4 4 4 4 3 3 2 2 4 5 6 6 6 6 6 5 6 6 6 7 7
4 4 4 4 4 4 5 5 5 6 6 7 7 7 7 8 8 9 6 7 6 4 5 4 4 4 3 4 3 3 2 3 5 6 6 5 4 4 5 5 5 6 7 7 6
3 4 4 4 4 5 5 5 6 6 6 6 6 7 7 8 8 8 8 8 7 5 5 4 3 2 2 3 3 3 2 4 5 5 5 4 4 4 4 4 4 5 5 6 6
3 3 3 4 4 4 5 5 6 6 6 6 7 6 6 6 6 6 7 6 6 5 5 4 4 2 3 2 3 2 2 3 4 4 3 4 4 3 3 4 4 4 4 5 5
3 3 3 4 4 4 5 5 5 5 5 5 6 6 6 6 7 5 6 5 4 4 4 4 3 3 2 3 2 2 1 3 3 3 2 2 2 3 3 3 4 4 3 4 4
2 2 3 3 4 4 4 4 4 4 4 4 4 5 5 6 6 5 5 4 4 2 2 3 3 2 1 1 2 1 1 1 2 2 2 2 2 2 3 4 4 3 3 3 3
2 2 3 3 4 3 3 4 4 4 4 4 4 4 5 4 4 5 4 4 3 3 2 1 1 0 0 -1 -0 -0 -1 -1 0 1 2 2 2 3 4 3 3 4 3 3 3
2 2 2 2 3 3 2 2 3 4 4 4 4 4 5 4 4 3 3 3 2 1 1 0 -0 -1 -2 -2 -2 -1 -2 -2 -1 0 1 1 2 2 3 3 3 2 3 2 2
2 2 2 2 2 2 2 2 2 3 3 3 3 3 4 4 4 3 3 2 1 0 -0 -1 -1 -2 -2 -3 -3 -2 -2 -2 -1 0 1 0 1 1 2 2 2 2 2 2 2
1 1 2 1 2 2 2 2 2 2 2 2 3 3 3 2 3 2 1 0 0 -0 -2 -2 -3 -3 -3 -3 -3 -3 -3 -3 -2 -1 0 0 0 -0 0 1 1 2 2 1 2
1 1 2 1 1 1 2 2 2 2 1 1 1 2 2 2 1 0 -1 -1 -2 -2 -1 -2 -3 -3 -3 -3 -3 -3 -3 -3 -2 -2 -1 -1 -1 -1 -1 0 1 1 2 1 2
2 1 1 2 1 1 1 1 0 -0 3 2 3 3 1 -0 -1 -2 -3 -3 -3 -3 -3 -4 -3 -3 -3 -3 -3 -4 -3 -3 -3 -2 -2 -1 -1 -1 -1 -0 -0 0 1 1 1
1 1 0 1 1 0 -0 -0 -1 -3 -2 2 0 0 -1 -2 -3 -3 -3 -4 -4 -4 -4 -4 -3 -3 -4 -4 -4 -4 -4 -4 -3 -3 -3 -3 -3 -2 -1 -0 -0 -0 0 0 0
1 0 0 1 -0 -1 -1 -2 -3 -5 -4 -1 -3 -3 -4 -4 -3 -4 -4 -5 -5 -4 -5 -5 -4 -4 -4 -4 -4 -4 -4 -4 -4 -4 -4 -3 -4 -2 -1 -1 -0 -0 -0 0 0
0 -1 -1 -1 -1 -2 -3 -4 -5 -6 -8 -3 -4 -5 -5 -5 -5 -4 -4 -5 -5 -5 -5 -4 -4 -4 -4 -3 -4 -4 -4 -4 -3 -5 -5 -4 -4 -3 -2 -1 -1 -1 -1 -0 -0
-1 -2 -2 -2 -2 -3 -3 -4 -7 -7 -8 -4 -5 -6 -6 -6 -5 -5 -5 -5 -5 -5 -5 -4 -4 -4 -4 -3 -4 -4 -4 -4 -5 -5 -7 -4 -4 -3 -2 -1 -1 -1 -1 -1 -2
-2 -3 -3 -3 -4 -4 -5 -7 -7 -8 -5 -7 -7 -7 -7 -7 -7 -6 -6 -6 -6 -6 -5 -5 -5 -4 -4 -4 -4 -5 -5 -5 -7 -8 -6 -3 -4 -3 -3 -2 -2 -2 -2 -3 -3
-3 -5 -5 -5 -6 -7 -8 -8 -9 -8 -8 -9 -9 -8 -7 -7 -7 -7 -7 -7 -6 -7 -7 -6 -6 -5 -5 -5 -5 -4 -4 -5 -7 -9 -8 -4 -5 -4 -4 -4 -3 -3 -4 -4 -4
-5 -6 -7 -8 -8 -9 -9 -10 -9 -10 -10 -11 -9 -8 -8 -9 -9 -9 -8 -8 -8 -8 -7 -7 -7 -6 -6 -6 -6 -7 -6 -5 -6 -6 -8 -6 -8 -8 -6 -6 -5 -5 -5 -5 -5
-7 -9 -9 -10 -10 -9 -10 -10 -10 -11 -11 -11 -11 -10 -10 -10 -9 -9 -9 -9 -9 -9 -9 -8 -8 -7 -6 -6 -7 -7 -7 -7 -7 -7 -6 -8 -8 -7 -7 -7 -7 -7 -7 -7 -7
-11 -10 -11 -11 -11 -11 -10 -11 -11 -11 -11 -11 -11 -11 -11 -11 -10 -10 -10 -11 -10 -10 -10 -10 -9 -9 -8 -9 -8 -7 -8 -8 -7 -7 -7 -9 -8 -8 -7 -8 -8 -8 -8 -8 -9
-11 -11 -11 -11 -11 -11 -11 -11 -11 -11 -12 -11 -11 -12 -11 -11 -11 -11 -11 -11 -11 -11 -12 -11 -11 -10 -9 -10 -9 -9 -8 -8 -8 -9 -9 -9 -9 -9 -9 -8 -8 -8 -8 -9 -9
-11 -11 -11 -11 -12 -12 -11 -11 -12 -11 -11 -12 -11 -11 -12 -12 -12 -12 -12 -12 -12 -12 -12 -12 -12 -11 -10 -10 -10 -10 -10 -9 -9 -9 -10 -9 -10 -10 -9 -9 -9 -8 -9 -9 -9
-12 -12 -11 -11 -12 -12 -12 -11 -12 -12 -11 -12 -11 -11 -12 -12 -12 -12 -12 -12 -12 -12 -12 -12 -12 -12 -13 -12 -12 -12 -11 -11 -10 -10 -10 -10 -10 -9 -9 -9 -9 -9 -9 -10 -10
-12 -13 -13 -13 -12 -12 -12 -12 -12 -12 -12 -12 -12 -12 -12 -12 -12 -12 -12 -13 -12 -12 -12 -13 -13 -13 -12 -12 -13 -12 -11 -11 -11 -11 -10 -10 -10 -10 -10 -10 -10 -10 -10 -10 -10
-11 -13 -12 -12 -12 -12 -13 -12 -12 -12 -13 -13 -13 -12 -12 -12 -12 -12 -12 -13 -13 -13 -13 -13 -13 -13 -13 -12 -12 -12 -12 -11 -11 -11 -11 -11 -10 -10 -11 -11 -11 -10 -10 -10 -10
-11 -11 -12 -12 -12 -12 -12 -12 -12 -12 -12 -13 -13 -13 -12 -12 -12 -13 -13 -13 -14 -13 -14 -14 -14 -13 -13 -13 -12 -12 -12 -11 -11 -11 -11 -11 -11 -10 -10 -10 -10 -10 -10 -11 -11
Height
3106 3102 3097 3093 3089 3084 3080 3076 3073 3070 3068 3066 3064 3063 3061 3058 3056 3055 3055 3062 3061 3060 3061 3062 3063 3065 3066 3067 3066 3069 3064 3060 3061 3068 3071 3075 3078 3079 3080 3081 3083 3085 3087 3090 3092
3102 3098 3094 3089 3085 3080 3076 3072 3069 3065 3061 3059 3058 3056 3054 3052 3050 3048 3050 3049 3051 3051 3050 3053 3055 3058 3057 3059 3058 3058 3050 3050 3057 3065 3068 3070 3073 3076 3077 3077 3078 3081 3084 3086 3088
3099 3094 3089 3084 3079 3075 3070 3067 3063 3059 3056 3053 3050 3049 3047 3045 3043 3041 3039 3039 3040 3042 3044 3047 3049 3048 3049 3049 3048 3045 3038 3050 3055 3061 3063 3064 3067 3069 3071 3072 3075 3078 3080 3082 3084
3094 3089 3084 3079 3074 3069 3063 3059 3055 3052 3048 3046 3043 3042 3040 3038 3040 3034 3033 3032 3032 3032 3035 3037 3038 3037 3037 3037 3042 3037 3038 3046 3051 3055 3056 3059 3061 3061 3064 3067 3069 3071 3074 3076 3078
3090 3085 3080 3074 3070 3064 3058 3053 3049 3045 3042 3038 3035 3033 3032 3031 3033 3027 3026 3027 3026 3027 3028 3029 3029 3031 3029 3031 3037 3031 3035 3040 3045 3049 3049 3052 3051 3055 3053 3061 3063 3064 3067 3070 3073
3087 3081 3076 3071 3066 3060 3053 3047 3042 3039 3036 3032 3029 3026 3024 3022 3021 3018 3019 3019 3017 3019 3021 3022 3022 3026 3023 3025 3028 3026 3028 3033 3036 3041 3042 3043 3045 3045 3046 3056 3054 3056 3060 3063 3067
3083 3077 3070 3064 3059 3054 3047 3042 3037 3033 3030 3026 3021 3018 3017 3017 3013 3012 3010 3010 3010 3011 3012 3016 3017 3018 3017 3019 3022 3023 3023 3024 3026 3031 3034 3039 3032 3031 3045 3048 3048 3049 3052 3056 3060
3076 3070 3064 3057 3052 3047 3042 3037 3032 3028 3023 3019 3015 3011 3007 3006 3004 3004 3003 3002 3002 3003 3005 3008 3010 3012 3011 3015 3015 3016 3019 3017 3019 3026 3028 3032 3018 3029 3038 3040 3041 3043 3044 3047 3050
3072 3064 3058 3051 3047 3042 3037 3031 3026 3022 3018 3013 3010 3006 3002 2999 2998 2997 2997 2997 2996 2997 2998 3000 3002 3003 3006 3008 3011 3011 3008 3010 3016 3020 3024 3024 3017 3024 3033 3032 3034 3034 3035 3037 3041
3067 3059 3053 3046 3041 3036 3032 3025 3020 3015 3012 3007 3003 3002 2999 2996 2993 2992 2991 2990 2991 2992 2993 2994 2996 2995 2997 2999 2991 3000 3002 3004 3008 3015 3018 3017 3013 3019 3023 3023 3024 3025 3026 3028 3033
3061 3053 3047 3041 3034 3029 3025 3020 3017 3009 3002 3002 2999 2988 2990 2985 2983 2982 2982 2982 2983 2984 2985 2987 2986 2980 2986 2991 2995 3000 2999 3001 3003 3008 3011 3011 3010 3013 3014 3015 3015 3018 3020 3022 3026
3056 3047 3040 3036 3028 3020 3014 3009 3004 2998 2981 2993 2983 2978 2975 2973 2971 2974 2974 2976 2974 2975 2978 2980 2972 2980 2985 2988 2990 2993 2995 2994 3000 3004 3005 3005 3002 3005 3007 3008 3009 3012 3014 3018 3021
3050 3039 3030 3024 3022 3014 3006 3000 2994 2987 2979 2969 2968 2967 2966 2965 2965 2967 2967 2968 2970 2970 2971 2972 2975 2974 2978 2981 2983 2984 2986 2990 2994 2998 2999 2999 2995 2996 2999 3000 3002 3005 3008 3013 3016
3045 3034 3022 3013 3015 3005 2999 2992 2987 2982 2974 2967 2963 2962 2962 2961 2963 2963 2964 2967 2966 2968 2969 2968 2970 2971 2973 2974 2977 2979 2982 2986 2990 2993 2992 2995 2989 2987 2990 2993 2995 2998 3002 3006 3010
3038 3028 3017 3010 3001 2998 2993 2987 2983 2980 2979 2964 2961 2960 2960 2962 2962 2960 2961 2962 2964 2964 2966 2964 2965 2966 2967 2968 2973 2973 2981 2982 2984 2986 2987 2987 2990 2980 2984 2985 2988 2992 2995 2999 3003
3032 3022 3013 3009 3001 2994 2986 2981 2979 2981 2968 2961 2958 2958 2958 2958 2959 2958 2958 2959 2960 2960 2959 2961 2963 2964 2964 2966 2969 2972 2976 2978 2980 2982 2981 2976 2984 2975 2976 2978 2982 2986 2990 2994 2996
3025 3015 3006 2999 2994 2987 2981 2978 2978 2971 2963 2959 2956 2955 2954 2955 2955 2954 2954 2956 2957 2956 2955 2956 2956 2959 2961 2964 2966 2968 2972 2975 2980 2981 2972 2970 2977 2971 2972 2974 2978 2982 2986 2990 2992
3012 3006 2998 2992 2987 2981 2976 2977 2972 2962 2959 2957 2955 2954 2953 2953 2951 2950 2950 2951 2951 2951 2952 2953 2953 2952 2953 2956 2959 2962 2965 2966 2972 2973 2969 2969 2968 2964 2968 2971 2973 2977 2982 2986 2988
3001 2998 2990 2985 2981 2977 2973 2970 2967 2963 2961 2957 2954 2952 2952 2951 2951 2950 2950 2951 2949 2948 2950 2948 2947 2948 2950 2952 2955 2957 2960 2962 2963 2964 2966 2963 2963 2963 2963 2966 2970 2974 2977 2982 2986
2993 2989 2983 2980 2976 2970 2967 2967 2966 2962 2959 2957 2957 2955 2953 2951 2951 2950 2949 2949 2948 2947 2947 2947 2947 2946 2947 2949 2951 2953 2957 2959 2959 2957 2956 2958 2958 2957 2960 2964 2968 2972 2976 2980 2983
2990 2985 2982 2977 2971 2969 2968 2967 2965 2962 2960 2958 2956 2956 2954 2952 2950 2950 2949 2949 2947 2946 2946 2946 2947 2945 2943 2944 2947 2950 2951 2955 2954 2953 2951 2956 2957 2957 2961 2964 2967 2971 2974 2977 2982
2989 2987 2983 2979 2977 2972 2970 2967 2965 2962 2961 2957 2955 2954 2954 2952 2949 2949 2948 2948 2947 2946 2945 2946 2945 2945 2945 2943 2944 2946 2948 2949 2949 2952 2952 2952 2958 2956 2960 2965 2968 2972 2975 2978 2982
2989 2986 2983 2979 2977 2974 2972 2970 2967 2962 2959 2957 2955 2954 2952 2951 2952 2949 2948 2948 2947 2946 2944 2945 2946 2945 2943 2944 2944 2945 2944 2944 2946 2948 2950 2954 2958 2957 2960 2965 2969 2973 2976 2979 2981
2989 2984 2981 2980 2979 2976 2971 2968 2965 2963 2959 2956 2953 2952 2950 2949 2948 2948 2948 2947 2946 2946 2945 2945 2946 2948 2949 2948 2948 2946 2943 2945 2948 2949 2952 2954 2956 2957 2962 2966 2970 2973 2976 2979 2982
2991 2989 2984 2980 2977 2975 2972 2967 2965 2962 2958 2956 2952 2951 2948 2946 2945 2945 2946 2946 2945 2944 2944 2945 2945 2946 2946 2946 2946 2945 2946 2948 2949 2950 2954 2956 2957 2959 2963 2967 2970 2973 2976 2979 2982
2994 2990 2985 2981 2978 2973 2969 2967 2965 2961 2959 2955 2951 2947 2944 2942 2941 2941 2943 2944 2943 2943 2943 2943 2943 2942 2943 2943 2942 2942 2944 2946 2948 2950 2954 2957 2959 2961 2963 2966 2970 2973 2975 2978 2980
2995 2991 2986 2982 2976 2973 2971 2969 2965 2961 2957 2955 2950 2944 2940 2940 2940 2941 2941 2940 2941 2940 2940 2941 2941 2941 2941 2941 2941 2941 2940 2942 2945 2948 2951 2953 2956 2959 2961 2964 2967 2970 2973 2975 2976
Wind_Speed
25 25 25 26 27 27 28 28 28 29 30 30 29 27 26 28 29 30 30 23 24 28 30 29 30 31 32 35 36 35 43 43 47 41 36 25 16 15 24 24 25 25 22 20 22
28 28 28 28 29 30 30 30 30 29 30 30 30 30 30 30 31 30 25 25 28 33 37 35 33 31 35 37 41 42 50 51 47 37 35 33 27 22 22 21 22 26 26 24 22
29 29 29 29 29 30 31 30 30 30 31 33 32 31 32 32 31 32 30 29 28 32 38 36 35 36 38 40 43 48 55 46 43 38 36 37 35 31 30 29 21 16 20 23 25
32 32 32 30 31 32 32 30 29 29 30 31 32 33 34 34 28 22 20 20 17 23 36 39 41 44 46 46 44 49 49 45 40 39 40 37 35 32 24 23 23 24 26 27 26
32 32 32 32 32 33 33 31 30 29 28 26 29 30 30 35 32 32 35 33 31 29 23 33 45 45 49 49 44 49 49 45 41 39 41 39 39 36 38 33 32 31 29 27 27
34 35 35 35 34 34 31 30 29 28 28 27 25 26 26 28 26 29 27 28 30 30 29 28 33 41 46 46 46 49 47 46 46 42 40 37 37 33 36 30 35 38 34 30 29
35 36 38 38 36 33 31 28 27 26 26 27 27 26 26 21 25 25 27 27 27 26 31 25 24 31 39 40 38 44 43 34 38 38 41 38 47 48 33 30 36 40 40 36 32
39 41 43 42 40 36 32 29 27 26 27 28 29 29 30 29 27 24 24 24 24 25 25 28 28 28 31 28 27 28 38 41 39 29 30 28 42 24 22 26 32 32 36 36 34
44 45 44 42 39 34 31 32 31 30 30 31 30 31 31 20 17 16 16 17 21 23 24 26 31 34 32 32 30 32 29 27 31 33 31 34 43 36 31 31 32 31 33 36 34
46 43 41 40 39 37 35 36 35 36 35 28 31 21 26 32 33 28 24 20 20 19 22 26 29 36 39 34 37 31 27 33 26 18 19 27 35 26 22 27 29 29 28 30 28
44 41 40 39 41 41 41 39 41 45 35 39 35 44 36 38 36 32 27 25 24 24 25 27 33 44 45 45 44 34 19 31 25 22 25 33 35 27 26 25 32 28 23 21 24
42 43 43 41 44 45 45 44 42 42 53 41 40 41 36 32 35 28 26 23 24 25 24 27 38 35 34 34 36 38 41 39 32 26 23 27 30 26 24 25 26 26 23 22 21
44 48 50 50 45 44 42 40 37 36 40 47 26 23 21 17 17 14 18 18 18 18 22 26 11 8 22 32 35 37 38 37 35 29 26 20 28 27 25 28 27 33 29 25 24
47 48 50 52 42 37 35 32 29 26 25 21 7 6 7 8 6 8 12 14 17 15 17 18 19 26 26 22 25 34 30 29 26 24 15 19 6 20 27 27 27 28 31 30 26
46 42 44 43 45 38 32 27 22 19 6 6 5 7 6 5 6 6 8 13 14 12 13 8 6 8 16 25 17 21 14 18 16 18 21 18 10 16 22 28 29 30 28 27 28
43 43 44 39 33 33 32 28 22 3 9 4 5 6 6 5 10 13 13 12 11 14 18 19 15 10 10 10 18 27 19 15 16 16 6 22 21 8 21 27 24 25 20 18 19
45 45 43 38 32 26 25 23 8 8 5 4 7 8 10 11 8 8 10 13 12 6 13 16 23 27 26 20 11 16 16 3 2 3 6 9 19 19 15 18 22 21 19 20 21
52 48 45 38 24 21 21 17 10 6 9 14 17 18 11 6 8 9 9 14 16 16 16 8 7 15 16 25 23 25 22 8 7 5 3 10 9 9 29 17 19 20 21 21 20
57 50 42 20 17 20 24 9 6 7 12 19 17 9 4 7 12 11 8 6 4 4 7 6 8 11 9 13 18 19 20 25 5 2 1 7 6 9 17 20 20 21 22 22 21
57 45 33 22 24 25 17 9 5 11 13 14 8 9 14 17 13 11 4 8 9 8 9 7 8 12 15 17 17 17 11 9 12 4 5 3 5 5 24 24 24 25 25 24 21
42 41 28 29 19 16 13 18 16 30 15 8 9 9 11 10 12 11 4 3 4 5 4 8 4 6 18 15 17 18 16 12 6 4 2 3 2 9 23 26 27 25 22 20 20
38 34 26 22 30 24 25 25 28 26 23 15 8 5 9 12 10 6 6 8 13 14 13 10 7 6 3 2 8 20 19 21 6 3 3 2 2 8 24 24 23 22 21 22 21
34 30 28 20 25 31 24 21 24 21 22 18 12 18 12 14 9 7 6 7 8 13 9 10 5 7 2 2 1 0 0 4 5 5 4 3 3 11 22 23 20 17 18 17 12
31 28 35 19 28 27 34 27 27 19 14 19 17 17 16 17 14 8 9 10 14 10 7 11 1 2 6 9 15 9 7 4 3 4 4 2 11 17 20 23 21 17 15 8 8
30 26 25 29 26 29 26 23 19 22 22 17 20 20 19 14 17 13 13 9 11 10 9 5 3 9 10 11 13 15 10 5 1 5 3 5 13 17 16 15 12 10 8 4 4
28 26 27 20 26 27 26 17 19 22 23 20 24 25 19 23 24 12 11 13 12 11 11 10 8 7 12 10 10 14 11 12 9 9 10 8 14 16 9 9 10 10 11 10 10
27 25 26 25 26 23 19 16 16 21 17 20 22 21 12 7 5 10 11 12 13 16 15 10 8 3 3 7 12 5 10 13 13 16 14 18 16 15 15 14 12 12 13 14 12
Wind_Direction
333 327 324 320 315 312 306 301 298 292 288 289 290 288 285 281 277 272 270 276 247 242 240 237 236 236 235 234 230 232 231 235 243 246 250 257 274 258 248 245 239 241 249 259 250
331 328 326 323 320 316 309 303 298 294 288 284 281 284 282 279 277 277 279 264 250 237 241 235 234 235 236 236 230 229 231 240 246 251 257 259 262 259 255 253 255 245 241 245 250
331 328 327 325 323 319 315 310 302 297 292 288 284 279 277 277 277 275 275 267 254 240 242 239 232 232 236 238 235 236 237 246 250 252 255 256 259 262 256 254 246 239 242 245 241
333 331 328 329 328 324 317 313 308 301 295 289 286 286 281 275 275 271 264 259 252 240 236 235 233 232 232 234 236 239 244 246 251 254 255 258 260 255 245 236 238 231 232 234 236
334 331 329 330 329 326 320 317 314 310 304 297 291 284 284 280 279 272 266 271 270 261 243 240 236 235 235 236 237 242 245 249 252 252 256 257 255 258 251 247 246 240 238 238 239
334 332 331 330 329 326 321 318 316 315 312 307 300 292 286 285 277 271 268 261 256 252 250 240 239 240 242 240 237 243 248 248 251 253 257 258 257 254 252 246 245 242 245 249 246
333 331 329 327 326 325 320 317 314 313 310 307 304 302 296 292 283 275 269 261 256 251 241 235 233 233 238 242 246 244 247 249 245 245 250 255 256 250 252 248 248 247 252 254 251
333 331 330 329 328 327 324 318 315 310 309 308 305 302 303 294 287 272 263 258 251 245 239 232 229 230 233 233 237 238 245 248 242 235 239 243 252 257 247 250 250 254 256 256 255
332 328 328 328 327 326 324 320 315 312 310 307 301 299 299 296 290 284 265 250 248 241 233 229 226 226 228 227 236 238 244 248 251 248 244 244 260 267 266 260 259 259 254 252 251
333 331 329 329 327 325 321 317 314 310 308 301 301 297 292 293 287 278 268 250 242 237 228 222 226 226 223 219 225 228 234 243 246 248 240 245 256 266 268 258 249 250 253 242 235
332 330 328 327 323 321 317 313 310 310 300 300 296 293 288 283 275 264 256 254 247 236 231 228 223 225 228 232 240 239 243 249 253 247 250 256 260 256 247 247 251 248 238 232 235
331 327 322 321 320 318 315 315 311 306 303 300 296 287 280 266 262 258 251 245 242 239 228 227 235 240 243 242 242 244 244 248 254 243 253 255 256 251 256 250 245 226 225 239 228
330 324 321 319 320 316 315 313 311 307 306 307 296 276 269 266 261 240 237 237 238 233 229 233 234 200 239 243 241 241 244 252 257 266 263 257 263 250 242 242 239 230 230 237 233
328 325 321 320 322 322 320 316 313 315 310 306 285 251 249 247 252 231 229 229 232 245 242 252 247 246 256 256 238 245 245 249 255 255 243 233 276 236 237 240 241 237 235 234 237
330 328 324 327 324 323 320 314 313 315 321 273 250 227 232 249 266 253 231 229 239 237 221 227 224 230 241 247 224 242 254 249 251 252 248 223 226 244 232 229 232 233 232 239 242
334 330 325 324 319 318 312 308 309 284 247 240 226 215 221 257 276 265 264 240 241 237 241 246 236 230 237 245 231 240 249 244 251 230 229 229 212 254 220 226 227 229 227 239 233
333 329 327 327 326 315 303 306 296 223 301 290 270 287 299 296 283 268 248 243 237 247 253 255 252 249 248 244 227 217 211 173 224 201 230 186 200 228 219 217 215 216 235 242 227
331 333 332 335 322 306 303 304 241 288 305 305 320 315 309 291 225 216 214 222 232 243 249 253 254 230 230 228 230 222 205 184 201 195 238 177 217 214 223 223 214 209 210 206 197
330 334 339 329 309 307 298 283 296 334 338 341 344 338 263 329 342 337 327 296 291 320 231 249 228 214 212 214 208 206 217 224 242 179 123 190 208 208 204 197 191 181 180 176 167
332 344 347 338 318 314 300 270 265 351 351 347 342 333 334 331 336 333 288 309 285 276 289 292 295 252 230 221 226 227 238 220 216 203 201 159 188 200 185 181 172 165 159 163 166
342 3 4 349 351 11 19 353 341 342 360 329 316 311 320 337 337 328 278 314 320 297 337 325 270 287 203 204 224 229 230 223 212 210 195 148 207 194 184 176 173 175 174 159 154
352 6 10 16 10 11 358 357 348 347 349 331 309 336 316 318 322 305 255 285 324 355 0 350 338 307 324 160 243 237 225 222 208 179 120 92 94 185 184 188 189 181 169 164 159
351 355 9 3 3 357 350 355 353 344 338 356 317 302 323 307 317 305 296 309 320 343 356 4 357 328 298 51 112 253 110 164 119 130 125 123 138 170 175 179 178 176 167 165 160
355 353 355 8 356 353 349 342 346 357 9 347 342 345 332 304 295 272 291 302 308 330 325 331 10 280 280 305 303 317 61 84 210 109 120 94 160 173 181 184 184 183 173 145 119
357 354 358 331 354 351 353 336 351 348 342 351 337 338 317 309 282 262 282 288 302 316 331 287 263 303 303 287 288 286 273 272 304 113 148 188 154 165 166 179 172 168 182 200 229
352 353 345 350 337 345 354 339 347 332 336 344 334 323 314 298 282 236 281 301 303 298 319 285 280 293 308 303 293 274 254 246 248 248 242 207 198 179 175 181 201 206 213 230 237
355 353 354 6 357 5 16 341 338 329 336 332 334 334 351 358 273 311 294 290 285 288 297 282 259 265 280 305 302 243 260 236 240 241 233 215 219 219 229 233 232 228 218 230 229